Location: Beaver Brook Station
(42.3793°N, 71.2203°W)
Time: 04:22:37
(UTC+00:00)

Hubble Space Telescope - Pass Details

Date: 23 January 2021
Orbit: 535 x 539 km, 28.5° (Epoch: 03 March)

Event Time Altitude Azimuth Distance (km) Brightness Sun altitude
Rises 22:13:17 0° 231° (SW) 2,671 6.1 -5.2°
Reaches altitude 10° 22:16:56 10° 198° (SSW) 1,782 4.0 -5.8°
Maximum altitude 22:18:22 12° 178° (S) 1,683 3.6 -6.0°
Drops below altitude 10° 22:19:48 10° 157° (SSE) 1,782 3.4 -6.3°
Sets 22:23:27 0° 124° (SE) 2,674 4.0 -6.9°
